Regional Weather Roundup
Issued by NWS

Home | Current Version | Previous Version | Graphics & Text | Print | Product List | Glossary Off
Versions: 1 2 3 4 5 6 7 8 9 10 11 12 13 14 15 16 17 18 19 20 21 22 23 24 25 26 27 28 29 30 31 32 33 34 35 36 37 38 39 40 41 42 43 44 45 46 47 48 49 50

000
ASUS43 KMPX 071701
RWRMN
WEATHER ROUNDUP FOR MINNESOTA
NATIONAL WEATHER SERVICE TWIN CITIES/CHANHASSEN MN
1200 PM CDT TUE JUL 07 2015


NOTE: "FAIR" INDICATES FEW OR NO CLOUDS BELOW 12,000 FEET WITH NO
SIGNIFICANT WEATHER AND/OR OBSTRUCTIONS TO VISIBILITY. N/A MEANS
CURRENT SKY AND/OR WEATHER CONDITIONS ARE NOT AVAILABLE.

MNZ060>063-068>070-071800-
   Twin Cities Metro

CITY           SKY/WX    TMP DP  RH WIND       PRES   REMARKS
TWIN CITIES    MOSUNNY   65  44  46 NE16G22   30.16S
ST PAUL        MOSUNNY   65  45  48 N12G20    30.17S
CRYSTAL        SUNNY     67  45  45 NE9       30.15F
BLAINE         MOSUNNY   66  46  48 N9G15     30.16F
LAKEVILLE      SUNNY     63  46  55 N8        30.16S
EDEN PRAIRIE   MOSUNNY   66  44  45 NE10      30.15F
SOUTH ST PAUL  MOSUNNY   65  45  48 NE8       30.16S
LAKE ELMO      PTSUNNY   63  46  55 N7        30.17S
$$
MNZ001>005-007-008-013>017-022>024-027-028-071800-
   Northwest Minnesota

CITY           SKY/WX    TMP DP  RH WIND       PRES   REMARKS
BEMIDJI        SUNNY     65  44  48 CALM      30.17F
HALLOCK        SUNNY     68  48  49 S8        30.14F
ROSEAU         SUNNY     66  50  55 SW9       30.15F
WARROAD        SUNNY     64  48  55 W12G17    30.15F
THIEF RVR FALL SUNNY     64  45  48 SW7       30.18F
CROOKSTON      SUNNY     66  43  42 S7        30.18F
FOSSTON        SUNNY     64  54  68 CALM      30.19F
DETROIT LAKES  SUNNY     64  39  39 CALM      30.20F
MOORHEAD       SUNNY     64  46  52 SW5       30.20S
PARK RAPIDS    MOSUNNY   66  40  38 CALM      30.18F
MAHNOMEN       FAIR      64  41  43 SW6       30.18F
$$
MNZ006-009>011-018-025>026-071800-
   North Central Minnesota

CITY           SKY/WX    TMP DP  RH WIND       PRES   REMARKS
BAUDETTE       MOSUNNY   66  47  50 NW9       30.15F
FLAG ISLAND    SUNNY     64  45  48 CALM      30.12F
INTL FALLS     SUNNY     67  42  40 W8        30.14F
WASKISH        SUNNY     66  50  55 SW7       30.16F
BIG FORK       SUNNY     66  43  42 CALM      30.16S
LONGVILLE      MOSUNNY   64  43  45 W3        30.18S
GRAND RAPIDS   MOSUNNY   64  41  42 N7        30.17S
CRANE LAKE     SUNNY     64  41  42 NW5       30.15F
COOK           SUNNY     64  43  45 N3G17     30.15F
WALKER         FAIR      63  44  49 W7        30.18S
$$
MNZ012-019>021-037-071800-
   Northeast Minnesota

CITY           SKY/WX    TMP DP  RH WIND       PRES   REMARKS
DULUTH         MOSUNNY   66  43  43 N12       30.15S
ELY            SUNNY     64  41  42 N5        30.13F
HIBBING        MOSUNNY   66  43  43 NW7       30.15F
DULUTH HARBOR    N/A     64  48  55 E8        30.16S
TWO HARBORS    MOSUNNY   68  48  49 N5        30.12F
SILVER BAY     MOSUNNY   68  43  40 N5        30.11S
GRAND MARAIS     N/A     70  43  37 N7G16     30.09S
G MARAIS ARPRT SUNNY     63  39  42 NW7G21    30.12F
$$
MNZ029>031-032-039>041-046>048-054>057-064-071800-
   West Central Minnesota

CITY           SKY/WX    TMP DP  RH WIND       PRES   REMARKS
FERGUS FALLS   SUNNY     64  43  45 CALM      30.19F
WHEATON        SUNNY     63  45  51 E5        30.22S
MORRIS         MOSUNNY   66  46  48 N3        30.19S
ALEXANDRIA     MOSUNNY   65  44  46 N7        30.20F
ELBOW LAKE     FAIR      64  44  49 N5        30.19F
WADENA         SUNNY     64  41  42 E5        30.19F
GLENWOOD       SUNNY     64  45  48 NE5       30.20S
APPLETON       MOSUNNY   68  45  42 NE6       30.20S
BENSON         MOSUNNY   66  43  42 CALM      30.20S
ORTONVILLE     SUNNY     64  43  45 CALM      30.20S
MADISON        MOSUNNY   64  46  52 NE6       30.21R
WILLMAR        FAIR      66  46  48 E8        30.20F
$$
MNZ033>034-036-042>043-049>051-058-059-071800-
   Central Minnesota

CITY           SKY/WX    TMP DP  RH WIND       PRES   REMARKS
ST CLOUD       PTSUNNY   63  45  51 N8        30.17F
SAUK CENTRE    FAIR      64  44  48 N9        30.20S
PAYNESVILLE    MOSUNNY   63  43  47 NE12G17   30.19F
AITKIN         PTSUNNY   66  45  45 CALM      30.16F
PINE RIVER     MOSUNNY   66  46  48 N8        30.21S
BRAINERD       MOSUNNY   65  44  46 VRB6      30.18F
STAPLES        MOSUNNY   64  41  42 NW6       30.19F
LONG PRAIRIE   PTSUNNY   63  45  51 N7        30.20S
LITTLE FALLS   MOSUNNY   63  45  51 N5        30.18F
LITCHFIELD     SUNNY     64  45  48 NE9       30.19S
BUFFALO        SUNNY     65  44  45 NE12      30.18F
MAPLE LAKE     MOSUNNY   66  49  53 N10       30.19S
$$
MNZ037-044-045-052-053-071800-
   East Central Minnesota

CITY           SKY/WX    TMP DP  RH WIND       PRES   REMARKS
PRINCETON      MOSUNNY   66  45  45 N7        30.17F
MORA           MOSUNNY   63  43  48 CALM      30.19S
CAMBRIDGE      MOSUNNY   66  48  52 N6        30.15F
RUSH CITY      MOSUNNY   65  48  52 N7        30.17
MOOSE LAKE     MOSUNNY   64  41  42 CALM      30.15F
HINCKLEY       FAIR      64  46  52 N8        30.17S
CLOQUET        MOSUNNY   64  43  45 NE7       30.16F
MCGREGOR       PTSUNNY   64  41  42 NW8       30.17F
$$
MNZ071>073-080-081-089-090-097-098-071800-
   Southwest Minnesota

CITY           SKY/WX    TMP DP  RH WIND       PRES   REMARKS
MONTEVIDEO     SUNNY     66  48  52 E8        30.22
GRANITE FALLS  MOSUNNY   65  47  52 NE10G17   30.21F
CANBY          MOSUNNY   64  47  54 NE7       30.22S
MARSHALL       MOSUNNY   63  45  51 NE9         N/A
REDWOOD FALLS  MOSUNNY   65  45  48 NE9G17    30.19S
OLIVIA         MOSUNNY   63  43  48 NE8       30.19R
PIPESTONE      MOSUNNY   63  45  51 E6        30.21S
WINDOM         MOSUNNY   63  46  55 N10       30.19S
WORTHINGTON    MOSUNNY   61  45  55 NE13      30.20S
JACKSON        SUNNY     63  46  55 NE13      30.20R
TRACY          MOSUNNY   64  48  55 NE9       30.21S
SLAYTON        MOSUNNY   62  47  58 CALM      30.21S
$$
MNZ065>067-074>077-082>085-091>093-071800-
   South Central Minnesota

CITY           SKY/WX    TMP DP  RH WIND       PRES   REMARKS
MANKATO        MOSUNNY   63  45  51 NE9       30.17F
NEW ULM        SUNNY     63  45  51 NE10      30.18S
ST JAMES         N/A     63  50  63 N9        30.19S
FAIRMONT       PTSUNNY   61  43  51 N10       30.18R
GLENCOE        MOSUNNY   65  48  54 NE7       30.17S
FARIBAULT      SUNNY     64  46  52 NE10      30.16S
OWATONNA       MOSUNNY   63  46  55 N12       30.16S
WASECA         MOSUNNY   63  45  51 N12       30.18S
ALBERT LEA     PTSUNNY   61  48  63 N10       30.16S
$$
MNZ078>079-086>088-094>096-071800-
   Southeast Minnesota

CITY           SKY/WX    TMP DP  RH WIND       PRES   REMARKS
ROCHESTER      MOSUNNY   63  47  55 NE13      30.16S
RED WING       PTSUNNY   64  45  48 NE9       30.14S
STANTON        MOSUNNY   64  46  52 NE16G23   30.15S
DODGE CENTER   PTSUNNY   59  46  63 N5        30.16S
WINONA         CLOUDY    63  45  51 NE9       30.14S
AUSTIN         PTSUNNY   63  46  55 N12       30.15S
PRESTON        PTSUNNY   60  46  59 N12G18    30.15S
$$
ABBREVIATIONS USED IN REMARKS
   TC - TEMPERATURES IN CELSIUS
  WCI - WIND CHILL INDEX
   HX - HEAT INDEX
  VSB - VISIBILITY
$$



USA.gov is the U.S. government's official web portal to all federal, state and local government web resources and services.